CW5763 Weather Reports


Display with metric or nautical units.
time (UTC)temp
F
wind
direction
speed
MPH
gust
MPH
rain 1hr
in
rain 24hr
in
rain mn
in
humidity
%
barometer
mb
20260506110006 61 5 1.0 5.0 0.00 0.00 0.00 56 1012.6
20260506105004 61 356 2.0 5.0 0.00 0.00 0.00 52 1012.6
20260506104006 61 349 2.0 5.0 0.00 0.00 0.00 54 1012.6
20260506103006 60 3 1.0 3.0 0.00 0.00 0.00 53 1012.6
20260506102006 60 359 2.0 6.0 0.00 0.00 0.00 58 1012.6
20260506100006 58 10 2.0 5.0 0.00 0.00 0.00 66 1012.6
20260506095006 56 16 2.0 3.0 0.00 0.00 0.00 65 1012.6
20260506093006 55 6 2.0 6.0 0.00 0.00 0.00 71 1012.6
20260506091006 54 21 1.0 5.0 0.00 0.00 0.00 74 1012.8
20260506090006 53 9 1.0 8.0 0.00 0.00 0.00 75 1012.7
20260506084006 52 6 2.0 5.0 0.00 0.00 0.00 76 1012.7
20260506083006 52 19 2.0 5.0 0.00 0.00 0.00 76 1012.7
20260506081006 52 5 1.0 3.0 0.00 0.00 0.00 77 1012.6
20260506073006 51 77 0.0 2.0 0.00 0.00 0.00 79 1012.5
20260506072006 51 32 0.0 3.0 0.00 0.00 0.00 80 1012.5
20260506071006 51 44 0.0 3.0 0.00 0.00 0.00 81 1012.4
20260506062006 50 35 1.0 3.0 0.00 0.00 0.00 82 1012.0
20260506061006 50 34 1.0 2.0 0.00 0.00 0.00 82 1011.9
20260506051006 50 61 1.0 2.0 0.00 0.00 0.00 82 1011.9
20260506045006 50 106 0.0 1.0 0.00 0.00 0.00 81 1011.7
20260506044006 50 107 0.0 2.0 0.00 0.00 0.00 81 1011.6
20260506043005 50 119 0.0 2.0 0.00 0.00 0.00 81 1011.5
20260506042006 50 159 0.0 1.0 0.00 0.00 0.00 80 1011.6
20260506041005 51 159 0.0 1.0 0.00 0.00 0.00 79 1011.6
20260506040005 51 159 0.0 3.0 0.00 0.00 0.00 79 1011.5
20260506035005 51 110 0.0 2.0 0.00 0.00 0.00 79 1011.4
20260506034005 51 209 0.0 3.0 0.00 0.00 0.00 78 1011.4
20260506033006 51 164 0.0 3.0 0.00 0.00 0.00 78 1011.5
20260506032005 51 19 0.0 3.0 0.00 0.00 0.00 78 1011.5
20260506030005 52 141 0.0 2.0 0.00 0.00 0.00 81 1011.6
20260506024005 52 45 1.0 3.0 0.00 0.00 0.00 80 1011.5
20260506023005 52 123 0.0 1.0 0.00 0.00 0.00 79 1011.6
20260506022005 52 123 0.0 2.0 0.00 0.00 0.00 79 1011.5
20260506021005 52 138 0.0 2.0 0.00 0.00 0.00 78 1011.5
20260506020005 52 169 0.0 1.0 0.00 0.00 0.00 78 1011.6
20260506015005 52 163 0.0 1.0 0.00 0.00 0.00 77 1011.6
20260506014005 52 163 1.0 5.0 0.00 0.00 0.00 77 1011.6
20260506013005 52 151 0.0 2.0 0.00 0.00 0.00 77 1011.6
20260506012005 53 151 0.0 3.0 0.00 0.00 0.00 77 1011.7
20260506010005 53 162 1.0 3.0 0.00 0.00 0.00 75 1011.7
20260506005006 53 171 0.0 3.0 0.00 0.00 0.00 75 1011.6
20260506004005 53 171 1.0 3.0 0.00 0.00 0.00 74 1011.8
20260506003005 53 168 0.0 6.0 0.00 0.00 0.00 74 1011.7
20260506002005 53 138 0.0 5.0 0.00 0.00 0.00 75 1011.8
20260506001005 53 151 2.0 5.0 0.00 0.00 0.00 74 1011.7
20260506000005 54 135 2.0 8.0 0.00 0.00 0.00 75 1011.7
20260505235005 54 125 1.0 7.0 0.00 0.00 0.00 77 1011.7
20260505234005 54 132 2.0 9.0 0.00 0.00 0.00 77 1011.7
20260505233005 54 123 1.0 9.0 0.00 0.00 0.00 79 1011.6
20260505232005 54 9 0.0 3.0 0.00 0.00 0.00 79 1011.6
20260505231005 54 6 1.0 3.0 0.00 0.00 0.00 78 1011.5
20260505225005 54 5 1.0 3.0 0.00 0.00 0.00 78 1011.4
20260505224005 55 5 1.0 2.0 0.00 0.00 0.00 78 1011.4
20260505223005 55 9 1.0 3.0 0.00 0.00 0.00 78 1011.5
20260505221005 55 358 0.0 3.0 0.00 0.00 0.00 78 1011.3
20260505214005 55 331 1.0 5.0 0.00 0.00 0.00 77 1011.4
20260505213005 55 328 1.0 3.0 0.00 0.00 0.00 77 1011.5
20260505212005 55 332 1.0 3.0 0.00 0.00 0.00 77 1011.4
20260505210005 56 350 0.0 2.0 0.00 0.00 0.00 77 1011.3
20260505205006 56 350 1.0 2.0 0.00 0.00 0.00 76 1011.3
20260505204005 56 348 0.0 3.0 0.00 0.00 0.00 77 1011.3
20260505203005 56 355 0.0 1.0 0.00 0.00 0.00 76 1011.3
20260505202005 56 355 0.0 3.0 0.00 0.00 0.00 75 1011.3
20260505201005 56 355 1.0 3.0 0.00 0.00 0.00 75 1011.3
20260505200005 57 355 0.0 2.0 0.00 0.00 0.00 75 1011.2
20260505195005 57 355 1.0 2.0 0.00 0.00 0.00 75 1011.1
20260505194005 57 355 1.0 2.0 0.00 0.00 0.00 75 1011.1
20260505193004 57 355 0.0 1.0 0.00 0.00 0.00 75 1011.0
20260505192005 58 355 0.0 2.0 0.00 0.00 0.00 74 1010.9
20260505190005 58 355 0.0 2.0 0.00 0.00 0.00 73 1010.8
20260505185004 58 355 0.0 2.0 0.00 0.00 0.00 73 1010.8
20260505184005 58 0 0.0 2.0 0.00 0.00 0.00 72 1010.7
20260505183005 58 0 0.0 2.0 0.00 0.00 0.00 71 1010.7
20260505182004 58 0 1.0 2.0 0.00 0.00 0.00 71 1010.7
20260505181005 58 0 0.0 2.0 0.00 0.00 0.00 71 1010.7
20260505174004 59 0 2.0 3.0 0.00 0.00 0.00 69 1010.8
20260505171004 60 0 0.0 2.0 0.00 0.00 0.00 69 1011.0
20260505165004 60 5 2.0 3.0 0.00 0.00 0.00 66 1011.1
20260505163007 61 347 1.0 3.0 0.00 0.00 0.00 66 1011.0
20260505162004 61 339 1.0 3.0 0.00 0.00 0.00 68 1011.0
20260505161004 61 321 1.0 5.0 0.00 0.00 0.00 66 1010.9
20260505153004 62 311 1.0 3.0 0.00 0.00 0.00 64 1011.1
20260505152004 62 310 2.0 5.0 0.00 0.00 0.00 64 1011.1
20260505151004 62 313 1.0 5.0 0.00 0.00 0.00 64 1011.1
20260505124004 60 25 3.0 7.0 0.00 0.00 0.00 68 1011.7
20260505123004 59 11 2.0 8.0 0.00 0.00 0.00 68 1011.8
20260505122004 59 27 2.0 6.0 0.00 0.00 0.00 68 1011.8
20260505121004 59 48 1.0 5.0 0.00 0.00 0.00 70 1011.7
20260505120006 59 71 2.0 5.0 0.00 0.00 0.00 68 1011.8
20260505114006 61 11 2.0 5.0 0.00 0.00 0.00 67 1011.7
20260505113006 61 5 1.0 5.0 0.00 0.00 0.00 67 1011.9
20260505112005 62 15 2.0 5.0 0.00 0.00 0.00 65 1011.8